CW4740 Weather Reports


Display with metric or nautical units.
time (UTC)temp
F
wind
direction
speed
MPH
gust
MPH
rain 1hr
in
rain 24hr
in
rain mn
in
humidity
%
barometer
mb
20260905114727 81 115 0.0 0.0 0.00 0.68 0.18 96 1015.0
20260905114223 81 115 0.0 0.0 0.00 0.68 0.18 96 1015.0
20260905113638 81 115 0.0 0.0 0.00 0.68 0.18 96 1014.9
20260905113236 81 115 0.0 0.0 0.00 0.68 0.18 96 1014.8
20260905112728 81 115 0.0 0.0 0.00 0.68 0.18 96 1014.8
20260905112223 81 115 0.0 0.0 0.00 0.68 0.18 96 1014.8
20260905111657 81 115 0.0 0.0 0.00 0.68 0.18 96 1014.8
20260905111134 81 115 0.0 0.0 0.00 0.68 0.18 96 1014.6
20260905110631 80 115 0.0 0.0 0.00 0.68 0.18 96 1014.7
20260905110132 80 115 0.0 0.0 0.00 0.68 0.18 96 1014.7
20260905105640 80 115 0.0 0.0 0.00 0.68 0.18 96 1014.7
20260905105137 81 115 0.0 0.0 0.00 0.68 0.18 96 1014.6
20260905104654 81 115 0.0 0.0 0.00 0.68 0.18 96 1014.6
20260905104130 81 115 0.0 0.0 0.00 0.68 0.18 96 1014.8
20260905103703 81 115 0.0 0.0 0.00 0.68 0.18 96 1014.8
20260905103142 81 115 0.0 0.0 0.00 0.68 0.18 96 1014.7
20260905102640 80 115 0.0 0.0 0.00 0.68 0.18 95 1014.6
20260905102138 81 115 0.0 0.0 0.00 0.68 0.18 95 1014.6
20260905101736 81 115 0.0 0.0 0.00 0.68 0.18 95 1014.6
20260905101152 80 115 0.0 0.0 0.00 0.68 0.18 95 1014.6
20260905100648 80 115 0.0 0.0 0.00 0.68 0.18 95 1014.6
20260905100205 80 115 0.0 0.0 0.00 0.68 0.18 95 1014.5
20260905095630 80 115 0.0 0.0 0.00 0.68 0.18 95 1014.5
20260905095148 80 115 0.0 0.0 0.00 0.68 0.18 95 1014.5
20260905094646 80 115 0.0 0.0 0.00 0.68 0.18 94 1014.5
20260905094203 80 115 0.0 0.0 0.00 0.68 0.18 94 1014.3
20260905093720 80 115 0.0 0.0 0.00 0.68 0.18 94 1014.3
20260905093136 81 115 0.0 0.0 0.01 0.68 0.18 94 1014.2
20260905092635 81 115 0.0 0.0 0.01 0.68 0.18 94 1014.3
20260905092233 81 115 0.0 0.0 0.02 0.68 0.18 94 1014.2
20260905091705 81 115 0.0 0.0 0.10 0.68 0.18 94 1014.2
20260905091146 81 115 0.0 0.0 0.14 0.68 0.18 93 1014.2
20260905090740 81 115 0.0 0.0 0.18 0.68 0.18 93 1014.2
20260905090137 81 115 0.0 0.0 0.18 0.68 0.18 93 1014.2
20260905085703 81 115 0.0 0.0 0.18 0.68 0.18 92 1014.2
20260905085139 81 115 0.0 0.0 0.18 0.68 0.18 92 1014.3
20260905084640 81 115 0.0 0.0 0.18 0.68 0.18 92 1014.3
20260905084233 81 115 0.0 0.0 0.18 0.68 0.18 91 1014.3
20260905083646 82 115 0.0 0.0 0.18 0.68 0.18 91 1014.3
20260905083203 81 115 0.0 3.0 0.17 0.67 0.17 91 1014.3
20260905082659 81 115 2.0 6.0 0.17 0.67 0.17 89 1014.4
20260905082155 81 115 2.0 8.0 0.15 0.65 0.15 86 1014.5
20260905081711 83 157 3.0 10.0 0.08 0.58 0.08 88 1014.6
20260905081228 83 140 4.0 10.0 0.04 0.54 0.04 86 1014.5
20260905080724 83 224 4.0 10.0 0.00 0.50 0.00 85 1014.6
20260905080220 84 123 0.0 0.0 0.00 0.50 0.00 86 1014.5
20260905075647 84 123 0.0 0.0 0.00 0.50 0.00 86 1014.5
20260905075145 84 123 0.0 0.0 0.00 0.50 0.00 86 1014.4
20260905074642 84 123 0.0 0.0 0.00 0.50 0.00 86 1014.4
20260905074138 84 123 0.0 0.0 0.00 0.50 0.00 86 1014.4
20260905073735 84 123 0.0 0.0 0.00 0.50 0.00 86 1014.4
20260905073632 84 123 0.0 0.0 0.00 0.50 0.00 86 1014.4
20260905073129 84 123 0.0 0.0 0.00 0.50 0.00 86 1014.3
20260905072647 84 123 0.0 0.0 0.00 0.50 0.00 86 1014.4
20260905072145 84 123 0.0 0.0 0.00 0.50 0.00 86 1014.4
20260905071724 84 123 0.0 0.0 0.00 0.50 0.00 86 1014.4
20260905071641 84 123 0.0 0.0 0.00 0.50 0.00 86 1014.4
20260905071219 84 123 0.0 0.0 0.00 0.50 0.00 86 1014.4
20260905071136 84 123 0.0 0.0 0.00 0.50 0.00 86 1014.4
20260905070634 84 123 0.0 0.0 0.00 0.50 0.00 86 1014.4
20260905070213 84 123 0.0 0.0 0.00 0.50 0.00 86 1014.5
20260905065640 84 123 0.0 0.0 0.00 0.50 0.00 86 1014.5
20260905065138 84 123 0.0 0.0 0.00 0.50 0.00 86 1014.5
20260905064736 85 123 0.0 0.0 0.00 0.50 0.00 86 1014.6
20260905064130 85 123 0.0 0.0 0.00 0.50 0.00 86 1014.8
20260905063648 85 123 0.0 0.0 0.00 0.50 0.00 86 1014.9
20260905063145 85 123 0.0 0.0 0.00 0.50 0.00 86 1014.9
20260905062722 85 123 0.0 0.0 0.00 0.50 0.00 85 1015.0
20260905062216 85 123 0.0 2.0 0.00 0.50 0.00 86 1015.0
20260905061747 85 123 0.0 3.0 0.00 0.50 0.00 85 1015.1
20260905061644 85 123 0.0 3.0 0.00 0.50 0.00 85 1015.1
20260905061241 85 123 0.0 0.0 0.00 0.50 0.00 85 1015.2
20260905060635 85 123 0.0 3.0 0.00 0.50 0.00 85 1015.2
20260905060133 85 123 1.0 4.0 0.00 0.50 0.00 85 1015.3
20260905055639 85 123 2.0 4.0 0.00 0.50 0.00 85 1015.3
20260905055142 85 123 2.0 5.0 0.00 0.50 0.00 85 1015.4
20260905054716 85 150 3.0 5.0 0.00 0.50 0.00 85 1015.3
20260905054132 85 117 2.0 6.0 0.00 0.50 0.00 85 1015.4
20260905053709 85 117 1.0 7.0 0.00 0.50 0.00 86 1015.5
20260905053128 85 117 3.0 7.0 0.00 0.50 0.00 86 1015.5
20260905052741 85 159 2.0 5.0 0.00 0.50 0.00 86 1015.6
20260905052136 85 127 2.0 5.0 0.00 0.50 0.00 87 1015.6
20260905051634 85 127 2.0 5.0 0.00 0.50 0.00 87 1015.6
20260905051136 84 180 2.0 3.0 0.00 0.50 0.00 87 1015.5
20260905050634 84 180 2.0 3.0 0.00 0.50 0.00 87 1015.6
20260905050133 85 180 2.0 3.0 0.00 0.50 0.00 87 1015.8
20260905045738 85 180 0.0 1.0 0.00 0.50 0.00 87 1015.8
20260905045136 85 180 0.0 0.0 0.00 0.50 0.00 87 1015.9
20260905044632 85 180 0.0 0.0 0.00 0.50 0.00 87 1015.9
20260905044150 85 180 0.0 1.0 0.00 0.50 0.00 87 1015.9
20260905043659 85 180 0.0 2.0 0.00 0.50 0.00 87 1015.9
20260905043136 85 180 0.0 2.0 0.00 0.50 0.00 87 1016.0
20260905042654 85 180 0.0 2.0 0.00 0.50 0.00 86 1015.9
20260905042135 85 180 1.0 3.0 0.00 0.50 0.00 86 1015.9
20260905041750 85 180 0.0 3.0 0.00 0.50 0.00 86 1015.9
20260905041145 85 180 0.0 1.0 0.00 0.50 0.00 86 1015.9
20260905040723 85 180 0.0 2.0 0.00 0.50 0.00 85 1015.9
20260905040641 85 180 0.0 2.0 0.00 0.50 0.00 85 1015.9
20260905040139 85 180 0.0 2.0 0.00 0.50 0.50 85 1015.9
20260905035648 85 180 0.0 2.0 0.00 0.50 0.50 85 1016.0
20260905035130 85 180 1.0 4.0 0.00 0.50 0.50 85 1016.0
20260905034648 85 180 1.0 4.0 0.00 0.50 0.50 86 1016.0
20260905034144 85 191 2.0 4.0 0.00 0.50 0.50 86 1016.0
20260905033640 85 191 0.0 2.0 0.00 0.50 0.50 87 1016.1
20260905033136 85 191 0.0 0.0 0.00 0.50 0.50 86 1016.0
20260905032632 85 191 0.0 0.0 0.00 0.50 0.50 86 1016.1
20260905032129 85 191 0.0 0.0 0.00 0.50 0.50 86 1016.2
20260905031706 85 191 0.0 0.0 0.00 0.50 0.50 86 1016.2
20260905031144 85 191 0.0 0.0 0.00 0.50 0.50 86 1016.1
20260905030700 85 191 0.0 0.0 0.00 0.50 0.50 86 1016.2
20260905030135 85 191 0.0 0.0 0.00 0.50 0.50 86 1016.2
20260905025644 85 191 0.0 0.0 0.00 0.50 0.50 86 1016.3
20260905025142 85 191 0.0 0.0 0.00 0.50 0.50 86 1016.2
20260905024701 85 191 0.0 0.0 0.00 0.50 0.50 86 1016.2
20260905024156 85 191 0.0 0.0 0.00 0.50 0.50 85 1016.2
20260905023711 85 191 0.0 0.0 0.00 0.50 0.50 85 1016.2
20260905023242 85 191 0.0 0.0 0.00 0.50 0.50 85 1016.3
20260905022641 85 191 0.0 0.0 0.00 0.50 0.50 84 1016.2
20260905022159 86 191 0.0 0.0 0.00 0.50 0.50 84 1016.3
20260905021712 86 191 0.0 0.0 0.00 0.50 0.50 84 1016.4
20260905021228 86 191 0.0 0.0 0.00 0.50 0.50 84 1016.4
20260905020704 86 191 0.0 0.0 0.00 0.50 0.50 83 1016.4
20260905020221 86 191 0.0 0.0 0.00 0.50 0.50 83 1016.4
20260905015748 86 191 0.0 0.0 0.00 0.50 0.50 83 1016.2
20260905015144 86 191 0.0 0.0 0.00 0.50 0.50 83 1016.1
20260905014642 86 191 0.0 0.0 0.00 0.50 0.50 83 1016.1
20260905014141 86 191 0.0 0.0 0.00 0.50 0.50 83 1016.2
20260905013659 86 191 0.0 0.0 0.00 0.50 0.50 83 1016.1
20260905013216 86 191 0.0 0.0 0.00 0.50 0.50 83 1016.1
20260905013133 86 191 0.0 0.0 0.00 0.50 0.50 83 1016.1
20260905012750 86 191 0.0 0.0 0.00 0.50 0.50 82 1016.1
20260905012203 86 191 0.0 0.0 0.00 0.50 0.50 82 1015.9
20260905011639 86 191 0.0 0.0 0.00 0.50 0.50 82 1016.1
20260905011216 86 191 0.0 0.0 0.00 0.50 0.50 82 1016.0
20260905010651 86 191 0.0 2.0 0.00 0.50 0.50 82 1015.9
20260905010148 86 191 0.0 2.0 0.00 0.50 0.50 82 1015.8
20260905005737 86 191 0.0 0.0 0.00 0.50 0.50 82 1015.8
20260905005131 86 191 0.0 0.0 0.00 0.50 0.50 81 1015.7
20260905004630 86 191 0.0 0.0 0.00 0.50 0.50 81 1015.8
20260905004248 86 191 0.0 0.0 0.00 0.50 0.50 81 1015.7
20260905003740 86 191 0.0 0.0 0.00 0.50 0.50 82 1015.7
20260905003637 86 191 0.0 0.0 0.00 0.50 0.50 82 1015.7
20260905003138 86 191 0.0 0.0 0.00 0.50 0.50 81 1015.6
20260905002636 86 191 0.0 0.0 0.00 0.50 0.50 82 1015.6
20260905002214 86 191 0.0 0.0 0.00 0.50 0.50 82 1015.6
20260905001725 86 191 0.0 0.0 0.00 0.50 0.50 82 1015.5
20260905001141 86 191 0.0 4.0 0.00 0.50 0.50 82 1015.4
20260905000643 86 190 2.0 4.0 0.00 0.50 0.50 82 1015.3
20260905000142 86 167 1.0 5.0 0.00 0.50 0.50 82 1015.2
20260904235705 86 174 2.0 6.0 0.00 0.50 0.50 82 1015.2
20260904235200 86 159 2.0 7.0 0.00 0.50 0.50 82 1015.2
20260904234715 86 180 3.0 7.0 0.00 0.50 0.50 82 1015.0
20260904234151 86 158 2.0 4.0 0.00 0.50 0.50 83 1014.9
20260904233648 87 173 2.0 4.0 0.00 0.50 0.50 82 1015.0
20260904233246 87 166 2.0 8.0 0.00 0.50 0.50 82 1014.9
20260904232640 87 159 3.0 8.0 0.00 0.50 0.50 82 1014.9
20260904232138 87 123 2.0 9.0 0.00 0.50 0.50 82 1014.8
20260904231636 87 105 2.0 7.0 0.00 0.50 0.50 82 1014.7
20260904231135 87 153 2.0 8.0 0.00 0.50 0.50 82 1014.7
20260904230652 87 182 4.0 8.0 0.00 0.50 0.50 82 1014.5
20260904230130 87 137 2.0 8.0 0.00 0.50 0.50 82 1014.6
20260904225639 87 166 3.0 8.0 0.00 0.50 0.50 82 1014.6
20260904225136 87 125 3.0 7.0 0.00 0.50 0.50 82 1014.7
20260904224631 87 165 4.0 7.0 0.00 0.50 0.50 82 1014.8
20260904224247 87 155 4.0 7.0 0.00 0.50 0.50 81 1014.8
20260904224144 87 155 4.0 7.0 0.00 0.50 0.50 81 1014.8
20260904223700 87 157 3.0 9.0 0.00 0.50 0.50 81 1014.9
20260904223136 87 133 2.0 5.0 0.00 0.50 0.50 81 1014.8
20260904222711 88 213 2.0 5.0 0.00 0.50 0.50 81 1014.9
20260904222225 88 132 2.0 5.0 0.00 0.50 0.50 80 1015.1
20260904221701 88 132 2.0 6.0 0.00 0.50 0.50 80 1015.1
20260904221237 88 123 2.0 10.0 0.00 0.50 0.50 80 1015.1
20260904221133 88 123 2.0 10.0 0.00 0.50 0.50 80 1015.1
20260904220650 88 123 5.0 10.0 0.00 0.50 0.50 80 1015.0
20260904220226 88 127 3.0 8.0 0.00 0.50 0.50 80 1015.1
20260904220144 88 127 3.0 8.0 0.00 0.50 0.50 80 1015.1
20260904215712 88 177 3.0 10.0 0.00 0.50 0.50 79 1015.1
20260904215208 88 128 2.0 7.0 0.00 0.50 0.50 79 1015.0
20260904214741 88 155 2.0 8.0 0.00 0.50 0.50 79 1014.9
20260904214638 88 155 2.0 8.0 0.00 0.50 0.50 79 1014.9
20260904214236 88 198 4.0 9.0 0.00 0.50 0.50 79 1015.0
20260904214154 88 198 4.0 9.0 0.00 0.50 0.50 79 1015.0
20260904213651 88 128 6.0 9.0 0.00 0.50 0.50 79 1014.9
20260904213207 88 122 3.0 8.0 0.00 0.50 0.50 80 1014.9
20260904212704 88 135 3.0 8.0 0.00 0.50 0.50 79 1015.0
20260904212200 88 134 4.0 8.0 0.00 0.50 0.50 79 1015.1
20260904211735 88 116 4.0 9.0 0.00 0.50 0.50 79 1015.1
20260904211207 88 125 4.0 9.0 0.00 0.50 0.50 80 1015.2
20260904210724 88 141 2.0 9.0 0.00 0.50 0.50 80 1015.3
20260904210140 89 143 4.0 10.0 0.00 0.50 0.50 78 1015.1
20260904205647 89 119 4.0 9.0 0.00 0.50 0.50 79 1015.2
20260904205145 89 119 4.0 12.0 0.00 0.50 0.50 77 1015.5
20260904204703 89 171 6.0 12.0 0.00 0.50 0.50 77 1015.4
20260904204202 89 136 6.0 11.0 0.00 0.50 0.50 77 1015.2
20260904203659 89 153 6.0 11.0 0.00 0.50 0.50 74 1015.3
20260904203134 89 123 6.0 13.0 0.00 0.50 0.50 76 1015.6
20260904202650 90 108 6.0 14.0 0.00 0.50 0.50 77 1015.8
20260904202207 90 146 4.0 14.0 0.00 0.50 0.50 76 1015.9
20260904201643 91 112 5.0 9.0 0.00 0.50 0.50 76 1015.9
20260904201201 91 210 3.0 10.0 0.00 0.50 0.50 77 1015.9
20260904200658 91 162 4.0 10.0 0.00 0.50 0.50 76 1015.7
20260904200155 91 172 4.0 11.0 0.00 0.50 0.50 77 1015.5
20260904195643 91 130 4.0 10.0 0.00 0.50 0.50 77 1015.8
20260904195201 91 123 5.0 13.0 0.00 0.50 0.50 74 1015.9
20260904194638 91 140 4.0 13.0 0.00 0.50 0.50 75 1015.9
20260904194138 91 122 5.0 11.0 0.00 0.50 0.50 75 1015.6
20260904193737 91 155 7.0 13.0 0.00 0.50 0.50 75 1015.5
20260904193654 91 155 7.0 13.0 0.00 0.50 0.50 75 1015.5
20260904193229 91 200 7.0 13.0 0.00 0.50 0.50 74 1015.6
20260904192723 91 186 5.0 12.0 0.00 0.50 0.50 74 1015.6
20260904192158 91 125 6.0 12.0 0.00 0.50 0.50 75 1015.8
20260904191634 91 160 5.0 11.0 0.00 0.50 0.50 77 1015.9
20260904191211 90 149 6.0 13.0 0.00 0.50 0.50 77 1016.0
20260904191129 90 149 6.0 13.0 0.00 0.50 0.50 77 1016.0
20260904190646 90 126 6.0 14.0 0.00 0.50 0.50 77 1015.8
20260904190204 90 168 9.0 17.0 0.00 0.50 0.50 77 1015.7
20260904185633 90 132 8.0 16.0 0.00 0.50 0.50 76 1016.0
20260904185130 90 157 6.0 11.0 0.00 0.50 0.50 77 1016.1
20260904184748 90 160 4.0 12.0 0.00 0.50 0.50 77 1016.1
20260904184706 90 160 4.0 12.0 0.00 0.50 0.50 77 1016.1
20260904184238 90 131 6.0 12.0 0.00 0.50 0.50 76 1016.1
20260904184135 90 131 6.0 12.0 0.00 0.50 0.50 76 1016.1
20260904183711 90 190 6.0 12.0 0.00 0.50 0.50 76 1016.1
20260904183225 91 172 6.0 11.0 0.02 0.50 0.50 74 1015.9
20260904182640 90 144 8.0 12.0 0.04 0.50 0.50 76 1015.9
20260904182137 90 132 6.0 12.0 0.04 0.50 0.50 77 1016.0
20260904181715 90 126 4.0 10.0 0.04 0.50 0.50 80 1015.9
20260904181230 89 235 3.0 11.0 0.04 0.50 0.50 80 1015.9
20260904180745 88 145 5.0 11.0 0.04 0.50 0.50 84 1016.0
20260904180642 88 145 5.0 11.0 0.04 0.50 0.50 84 1016.0
20260904180140 86 158 3.0 9.0 0.04 0.50 0.50 88 1016.2
20260904175729 85 257 0.0 2.0 0.04 0.50 0.50 89 1016.3
20260904175224 84 257 0.0 2.0 0.04 0.50 0.50 89 1016.5
20260904174700 83 267 0.0 2.0 0.04 0.50 0.50 88 1016.6
20260904174138 83 267 0.0 6.0 0.04 0.50 0.50 85 1016.6
20260904173654 84 267 0.0 7.0 0.04 0.50 0.50 83 1016.7
20260904173251 84 253 2.0 12.0 0.02 0.48 0.48 80 1016.7
20260904173209 84 253 2.0 12.0 0.02 0.48 0.48 80 1016.7
20260904172645 85 254 5.0 12.0 0.00 0.46 0.46 75 1016.9
20260904172201 88 192 7.0 11.0 0.00 0.46 0.46 73 1016.9
20260904171732 90 198 6.0 12.0 0.00 0.46 0.46 76 1016.9
20260904171130 90 194 7.0 11.0 0.00 0.46 0.46 74 1016.7
20260904170703 91 122 7.0 11.0 0.00 0.46 0.46 74 1016.6
20260904170218 91 101 5.0 11.0 0.00 0.46 0.46 76 1016.6
20260904165643 90 169 9.0 12.0 0.00 0.46 0.46 72 1016.8
20260904165139 90 192 5.0 12.0 0.00 0.46 0.46 73 1016.9
20260904164736 91 115 5.0 10.0 0.00 0.46 0.46 75 1017.0
20260904164211 91 126 3.0 9.0 0.00 0.46 0.46 76 1017.2
20260904163707 91 143 4.0 9.0 0.00 0.46 0.46 76 1017.3
20260904163224 91 157 4.0 10.0 0.00 0.46 0.46 75 1017.1
20260904163141 91 157 4.0 10.0 0.00 0.46 0.46 75 1017.1
20260904162639 91 126 4.0 8.0 0.00 0.46 0.46 74 1017.1
20260904162217 91 192 5.0 10.0 0.00 0.46 0.46 74 1016.9
20260904161653 91 165 6.0 10.0 0.00 0.46 0.46 73 1017.2
20260904161152 91 169 3.0 8.0 0.00 0.46 0.46 70 1017.1
20260904160729 91 215 4.0 8.0 0.00 0.46 0.46 71 1017.3
20260904155653 91 192 4.0 6.0 0.00 0.61 0.46 74 1017.2
20260904155208 90 148 3.0 9.0 0.00 0.61 0.46 74 1017.2
20260904154725 90 165 4.0 9.0 0.00 0.61 0.46 75 1017.2
20260904154140 90 134 5.0 10.0 0.00 0.61 0.46 77 1017.1
20260904153656 90 96 5.0 10.0 0.00 0.61 0.46 77 1017.1
20260904153154 90 242 3.0 11.0 0.00 0.61 0.46 79 1017.0
20260904152651 90 130 5.0 11.0 0.00 0.61 0.46 78 1017.1
20260904152243 89 148 4.0 8.0 0.00 0.61 0.46 76 1017.3
20260904151636 88 229 2.0 7.0 0.00 0.61 0.46 78 1017.4
20260904151154 88 230 3.0 7.0 0.02 0.61 0.46 78 1017.4
20260904150652 88 248 2.0 7.0 0.07 0.61 0.46 81 1017.1
20260904150129 87 196 1.0 9.0 0.30 0.61 0.46 84 1017.0
20260904145719 86 226 1.0 9.0 0.38 0.61 0.46 85 1017.1
20260904145215 86 190 2.0 6.0 0.40 0.61 0.46 88 1017.2
20260904144711 85 200 3.0 7.0 0.45 0.61 0.46 89 1017.2
20260904144226 85 209 3.0 6.0 0.46 0.61 0.46 91 1017.0
20260904144144 85 209 3.0 6.0 0.46 0.61 0.46 91 1017.0
20260904143700 85 233 2.0 4.0 0.46 0.61 0.46 92 1017.0
20260904143136 84 346 0.0 4.0 0.46 0.61 0.46 92 1016.9
20260904142653 84 346 0.0 4.0 0.46 0.61 0.46 93 1016.9
20260904142150 83 345 1.0 5.0 0.46 0.61 0.46 92 1016.8
20260904141646 83 345 3.0 7.0 0.46 0.61 0.46 90 1016.8
20260904141245 83 253 3.0 11.0 0.44 0.59 0.44 89 1016.8
20260904140637 83 326 5.0 11.0 0.35 0.50 0.35 88 1016.9
20260904140214 84 248 4.0 6.0 0.15 0.30 0.15 89 1016.7
20260904140131 84 248 4.0 6.0 0.15 0.30 0.15 89 1016.7
20260904135718 85 251 3.0 5.0 0.08 0.23 0.08 88 1016.6
20260904135133 85 246 1.0 17.0 0.06 0.21 0.06 85 1016.6
20260904134650 86 252 9.0 17.0 0.00 0.15 0.00 81 1016.5
20260904134147 88 247 5.0 10.0 0.00 0.15 0.00 79 1016.6
20260904133706 90 270 3.0 10.0 0.00 0.15 0.00 79 1016.6
20260904133202 89 233 4.0 9.0 0.00 0.15 0.00 79 1016.5
20260904132637 89 109 5.0 11.0 0.00 0.15 0.00 79 1016.5
20260904132134 89 132 6.0 11.0 0.00 0.15 0.00 79 1016.4
20260904131651 89 130 3.0 10.0 0.00 0.15 0.00 81 1016.2
20260904131207 89 143 4.0 10.0 0.00 0.15 0.00 80 1016.2
20260904130703 89 149 5.0 8.0 0.00 0.15 0.00 81 1016.2
20260904130141 88 146 4.0 11.0 0.00 0.15 0.00 82 1016.2
20260904125708 88 135 4.0 11.0 0.00 0.15 0.00 83 1016.1
20260904125225 87 175 3.0 6.0 0.00 0.15 0.00 84 1016.1
20260904124654 87 167 0.0 5.0 0.00 0.15 0.00 87 1016.0
20260904124250 86 221 2.0 5.0 0.00 0.15 0.00 88 1016.0
20260904124147 86 221 2.0 5.0 0.00 0.15 0.00 88 1016.0
20260904123706 85 150 3.0 5.0 0.00 0.15 0.00 89 1016.0
20260904123142 85 135 0.0 2.0 0.00 0.15 0.00 91 1016.1
20260904122658 84 135 0.0 0.0 0.00 0.15 0.00 92 1015.9
20260904122134 84 135 0.0 0.0 0.00 0.15 0.00 93 1016.0
20260904121713 83 135 0.0 0.0 0.00 0.15 0.00 93 1016.0
20260904121249 83 135 0.0 0.0 0.00 0.15 0.00 94 1016.0
20260904121206 83 135 0.0 0.0 0.00 0.15 0.00 94 1016.0
20260904120703 82 135 0.0 0.0 0.00 0.15 0.00 94 1015.9
20260904120142 82 135 0.0 0.0 0.00 0.15 0.00 94 1015.8
20260904115651 82 135 0.0 0.0 0.00 0.15 0.00 94 1015.8
20260904115148 82 135 0.0 0.0 0.00 0.15 0.00 94 1015.7
20260904114745 82 135 0.0 0.0 0.00 0.15 0.00 94 1015.6